Location: Unspecified
(47.4992°N, 121.7766°W)
Time: 16:59:39
(UTC-08:00)

Cosmos 2058 - Pass Details

Date: 29 January 2021
Orbit: 561 x 584 km, 82.5° (Epoch: 05 March)

Event Time Altitude Azimuth Distance (km) Brightness Sun altitude
Rises 19:42:28 0° 191° (S) 2,788 6.5 -26.7°
Reaches altitude 10° 19:44:40 10° 193° (SSW) 1,891 5.6 -27.0°
Enters shadow 19:44:48 11° 193° (SSW) 1,831 5.6 -27.1°
